Weather Roundup
Issued by NWS

Home | Current Version | Previous Version | Text Only | Print | Product List | Glossary On
Versions: 1 2 3 4 5 6 7 8 9 10 11 12 13 14 15 16 17 18 19 20 21 22 23 24 25 26 27 28 29 30 31 32 33 34 35 36 37 38 39 40 41 42 43 44 45 46 47 48 49 50
000
NZUS93 KARX 231110
HRRWXR

CURRENT HOURLY OBSERVATIONS ACROSS
MUCH OF THE UPPER MISSISSIPPI VALLEY
NATIONAL WEATHER SERVICE LA CROSSE WI
600 AM CDT THU MAR 23 2017


...SOUTHEAST MINNESOTA...


CITY           SKY/WX    TMP DP  RH WIND       PRES   REMARKS
ROCHESTER      CLOUDY    33  23  66 SE20G28   30.18F WCI  21
ROCHESTER/MAYO CLOUDY    34  21  59 SE15G23   30.20F WCI  24
WINONA         CLOUDY    36  27  69 SE10      30.26F WCI  28
AUSTIN         CLOUDY    34  21  60 SE10G17   30.18F WCI  26
ALBERT LEA     CLOUDY    34  21  60 SE14      30.15F WCI  24
DODGE CENTER   CLOUDY    34  23  64 SE17G24   30.17F WCI  23
PRESTON        CLOUDY    33  20  60 SE13      30.22F WCI  24
OWATONNA       CLOUDY    36  21  55 SE16      30.15F WCI  26
FARIBAULT      CLOUDY    36  25  64 SE14      30.17F WCI  27
$$

...ELSEWHERE IN MINNESOTA...


CITY           SKY/WX    TMP DP  RH WIND       PRES   REMARKS
MINNEAPOLIS    CLOUDY    37  22  54 SE15      30.18F WCI  28
INTNL FALLS    CLOUDY    32  18  56 S9        30.03F WCI  24
DULUTH         FLURRIES  28  26  92 SE14      30.16F WCI  17
RED WING       CLOUDY    37  19  48 SE13G18   30.21F WCI  29
REDWOOD FALLS  CLOUDY    37  24  59 SE20      30.05F WCI  27
MANKATO        CLOUDY    36  24  62 SE16      30.13F WCI  26
WORTHINGTON    CLOUDY    36  23  59 SE17      30.02F WCI  26
FAIRMONT       CLOUDY    36  23  59 S17G26    30.10S WCI  26
$$

...SOUTHWEST WISCONSIN...


CITY           SKY/WX    TMP DP  RH WIND       PRES   REMARKS
LA CROSSE      CLOUDY    36  22  56 SE12      30.29F WCI  28
PRAIRIE DU CHI CLOUDY    34  19  54 E10       30.30F WCI  26
BOSCOBEL       CLOUDY    33  20  58 MISG      30.34S
LONE ROCK      CLOUDY    32  19  58 SE9       30.36F WCI  24
PLATTEVILLE    CLOUDY    32  23  69 SE10      30.32F WCI  23
FORT MC COY    MOCLDY    33  20  58 SE8G16    30.33S WCI  26
CAMP DOUGLAS   PTCLDY    30  20  66 E9        30.33F WCI  22
MAUSTON-NEW LI CLOUDY    30  21  69 SE7       30.33F WCI  23
VIROQUA        CLOUDY    31  20  64 SE12      30.29F WCI  22
WIS DELLS      CLOUDY    30  20  66 SE8       30.34F WCI  22
$$

...ELSEWHERE IN WISCONSIN...


CITY           SKY/WX    TMP DP  RH WIND       PRES   REMARKS
MILWAUKEE      CLOUDY    33  23  66 S8        30.42R WCI  26
MADISON        CLOUDY    30  21  69 VRB7      30.37S WCI  23
GREEN BAY      CLOUDY    28  23  81 S5        30.43R WCI  23
EAU CLAIRE     CLOUDY    33  21  61 SE12      30.25F WCI  24
BLACK RVR FLS  CLOUDY    33  19  55 SE5       30.30F WCI  29
MEDFORD        LGT SNOW  27  21  79 SE7       30.28F WCI  19
WAUSAU         CLOUDY    27  18  69 SE8       30.33F WCI  19
WIS RAPIDS     CLOUDY    28  20  71 SE9       30.35F WCI  19
MARSHFIELD     FLURRIES  28  19  69 S12       30.30F WCI  18
RICE LAKE      CLOUDY    30  26  85 E9        30.25F WCI  22
$$

...NORTHEAST IOWA...


CITY           SKY/WX    TMP DP  RH WIND       PRES   REMARKS
WATERLOO       CLOUDY    35  21  56 SE13      30.23F WCI  26
DUBUQUE        CLOUDY    32  21  64 SE16G23   30.31F WCI  21
DECORAH        CLOUDY    34  21  60 SE12G21   30.24F WCI  25
MASON CITY     CLOUDY    34  23  64 SE18      30.18F WCI  23
CHARLES CITY   CLOUDY    34  21  60 SE18G25   30.21F WCI  23
OELWEIN        CLOUDY    32  23  69 SE20      30.24F WCI  20
$$

...ELSEWHERE IN IOWA...


CITY           SKY/WX    TMP DP  RH WIND       PRES   REMARKS
DES MOINES     CLOUDY    42  18  37 SE9       30.15F
IOWA CITY      CLOUDY    37  23  56 SE10      30.28F WCI  30
FORT DODGE     CLOUDY    37  18  44 SE14      30.12F WCI  29
MARSHALLTOWN   CLOUDY    37  22  54 SE16      30.19S WCI  28
CEDAR RAPIDS   CLOUDY    35  23  61 SE15G22   30.24F WCI  25
$$

...NORTHERN ILLINOIS...


CITY           SKY/WX    TMP DP  RH WIND       PRES   REMARKS
CHICAGO-OHARE  CLOUDY    33  19  56 SE10      30.41S WCI  25
CHICAGO-MIDWAY CLOUDY    32  20  61 SE9       30.42F WCI  24
MOLINE         CLOUDY    34  23  64 E12       30.32F WCI  25
ROCKFORD       CLOUDY    34  20  56 SE12      30.39F WCI  25
PEORIA         CLOUDY    35  22  58 SE9       30.35S WCI  28
$$

NOTE: "FAIR" INDICATES FEW OR NO CLOUDS BELOW 12,000 FEET WITH NO
SIGNIFICANT WEATHER AND/OR OBSTRUCTIONS TO VISIBILITY. WIND
SPEEDS ARE IN MILES-PER-HOUR.




USA.gov is the U.S. government's official web portal to all federal, state and local government web resources and services.